Location: Passo di Treia
(43.2833°N, 13.3333°E)
Time: 08:39:37
(UTC+00:00)

H-2A R/B - Pass Details

Date: 09 December 2019
Orbit: 501 x 541 km, 97.3° (Epoch: 19 January)

Event Time Altitude Azimuth Distance (km) Brightness Sun altitude
Rises 16:41:56 0° 172° (S) 2,605 6.4 -12.5°
Reaches altitude 10° 16:44:02 10° 175° (S) 1,719 5.5 -12.8°
Maximum altitude 16:47:43 67° 259° (W) 550 3.0 -13.5°
Drops below altitude 10° 16:51:24 10° 343° (NNW) 1,721 5.3 -14.1°
Sets 16:53:30 0° 346° (NNW) 2,609 6.2 -14.5°
